User: anonymous   Login
Location: Coffee Creek Observatory
(38.8077°N, 94.7179°W)
Time: 17:01:22
(UTC-06:00)
Language:

Lacrosse 4 Rocket - Orbit

View from above orbital plane
View from above orbital plane
View from above satellite
View from above satellite

Ground track
Ground track

The orbit data is extracted from the following two-line orbital elements,

1 26474U 00047B   15059.36143700  .00001770  00000-0  17133-3 0  9991
2 26474 067.9965 000.4992 0058091 170.5746 189.6501 14.94024267789850
Epoch (UTC): 28 February 2015 08:40:28
Eccentricity: 0.0058091
inclination: 67.9965°
perigee height: 545 km
apogee height: 626 km
right ascension of ascending node: 0.4992°
argument of perigee: 170.5746°
revolutions per day: 14.94024267
mean anomaly at epoch: 189.6501°
orbit number at epoch: 78985

The dashed part of the orbit path shows where the satellite is in the earth's shadow,  

DLR